• In Netherlands
  • List of Countries
  • For 7 days
  • Water Temperature
  • Satellite Maps
  • Weather Map
  • Weather Widgets
  • user-avatar
    Login

    Hourly Weather Barisal

    Today, 18 October, Wednesday

    Time Temperature Precipitation Wind Pressure Humidity
    00:00 +29°C° 0 mm 1 mps 753 mmHg 70%
    01:00 +28°C° 0 mm 1 mps 753 mmHg 70%
    02:00 +28°C° 0 mm 1 mps 753 mmHg 70%
    03:00 +28°C° 0 mm 1 mps 753 mmHg 70%
    04:00 +28°C° 0.3 mm 1 mps 753 mmHg 71%
    05:00 +27°C° 0.3 mm 2 mps 753 mmHg 73%
    06:00 +27°C° 0 mm 2 mps 754 mmHg 83%
    07:00 +29°C° 0.1 mm 2 mps 754 mmHg 79%
    08:00 +30°C° 0.1 mm 3 mps 754 mmHg 74%
    09:00 +33°C° 0.1 mm 3 mps 755 mmHg 69%
    10:00 +34°C° 0 mm 3 mps 754 mmHg 66%
    11:00 +35°C° 0 mm 3 mps 754 mmHg 63%
    12:00 +36°C° 0 mm 4 mps 754 mmHg 60%
    13:00 +35°C° 0.2 mm 4 mps 753 mmHg 62%
    14:00 +35°C° 0.2 mm 4 mps 753 mmHg 65%
    15:00 +34°C° 0.2 mm 4 mps 752 mmHg 67%
    16:00 +33°C° 0 mm 4 mps 753 mmHg 71%
    17:00 +31°C° 0 mm 3 mps 753 mmHg 75%
    18:00 +30°C° 0 mm 3 mps 753 mmHg 79%
    19:00 +30°C° 0 mm 3 mps 753 mmHg 80%
    20:00 +30°C° 0 mm 3 mps 754 mmHg 81%
    21:00 +29°C° 0 mm 2 mps 754 mmHg 82%
    22:00 +29°C° 0.3 mm 3 mps 754 mmHg 83%
    23:00 +29°C° 0.3 mm 3 mps 754 mmHg 84%

    Tomorrow, 19 October, Thursday

    Time Temperature Precipitation Wind Pressure Humidity
    00:00 +29°C° 0.3 mm 3 mps 754 mmHg 85%
    01:00 +29°C° 0.6 mm 3 mps 754 mmHg 85%
    02:00 +29°C° 0.6 mm 4 mps 754 mmHg 85%
    03:00 +28°C° 0.6 mm 4 mps 753 mmHg 85%
    04:00 +28°C° 1.9 mm 4 mps 753 mmHg 85%
    05:00 +28°C° 1.9 mm 5 mps 753 mmHg 85%
    06:00 +28°C° 1.9 mm 5 mps 754 mmHg 85%
    07:00 +29°C° 1.6 mm 6 mps 754 mmHg 85%
    08:00 +29°C° 1.6 mm 6 mps 755 mmHg 84%
    09:00 +30°C° 1.6 mm 7 mps 755 mmHg 84%
    10:00 +29°C° 3.7 mm 7 mps 755 mmHg 85%
    11:00 +29°C° 3.7 mm 7 mps 755 mmHg 87%
    12:00 +29°C° 3.7 mm 7 mps 754 mmHg 88%
    13:00 +29°C° 1.8 mm 7 mps 754 mmHg 88%
    14:00 +29°C° 1.8 mm 6 mps 753 mmHg 88%
    15:00 +29°C° 1.8 mm 6 mps 753 mmHg 88%
    16:00 +29°C° 1.5 mm 6 mps 753 mmHg 89%
    17:00 +28°C° 1.5 mm 6 mps 753 mmHg 91%
    18:00 +28°C° 1.5 mm 6 mps 753 mmHg 93%
    19:00 +28°C° 1.3 mm 6 mps 754 mmHg 93%
    20:00 +28°C° 1.3 mm 6 mps 755 mmHg 93%
    21:00 +28°C° 1.3 mm 6 mps 755 mmHg 93%
    22:00 +28°C° 0.8 mm 6 mps 755 mmHg 92%
    23:00 +28°C° 0.8 mm 6 mps 755 mmHg 92%

    Day after tomorrow, 20 October, Friday

    Time Temperature Precipitation Wind Pressure Humidity
    00:00 +28°C° 0.8 mm 6 mps 755 mmHg 92%
    01:00 +28°C° 1.5 mm 7 mps 754 mmHg 92%
    02:00 +28°C° 1.5 mm 7 mps 754 mmHg 92%
    03:00 +28°C° 1.5 mm 7 mps 753 mmHg 92%
    04:00 +28°C° 4.9 mm 7 mps 754 mmHg 91%
    05:00 +28°C° 4.9 mm 8 mps 754 mmHg 91%
    06:00 +28°C° 4.9 mm 8 mps 754 mmHg 91%
    07:00 +28°C° 4.5 mm 8 mps 754 mmHg 91%
    08:00 +28°C° 4.5 mm 8 mps 755 mmHg 90%
    09:00 +28°C° 4.5 mm 8 mps 756 mmHg 90%
    10:00 +29°C° 3 mm 8 mps 755 mmHg 90%
    11:00 +29°C° 3 mm 8 mps 755 mmHg 90%
    12:00 +29°C° 3 mm 8 mps 755 mmHg 89%
    13:00 +29°C° 2.2 mm 8 mps 754 mmHg 89%
    14:00 +29°C° 2.2 mm 7 mps 753 mmHg 90%
    15:00 +29°C° 2.2 mm 7 mps 753 mmHg 90%
    16:00 +28°C° 2 mm 7 mps 753 mmHg 91%
    17:00 +28°C° 2 mm 6 mps 753 mmHg 91%
    18:00 +28°C° 2 mm 6 mps 753 mmHg 92%
    19:00 +28°C° 1.5 mm 5 mps 754 mmHg 92%
    20:00 +28°C° 1.5 mm 5 mps 754 mmHg 92%
    21:00 +28°C° 1.5 mm 5 mps 755 mmHg 93%
    22:00 +28°C° 0.8 mm 5 mps 755 mmHg 92%
    23:00 +28°C° 0.8 mm 5 mps 754 mmHg 92%

    21 October, Saturday

    Time Temperature Precipitation Wind Pressure Humidity
    00:00 +28°C° 0.8 mm 5 mps 754 mmHg 92%
    01:00 +28°C° 1.4 mm 5 mps 754 mmHg 92%
    02:00 +28°C° 1.4 mm 5 mps 753 mmHg 92%
    03:00 +28°C° 1.4 mm 5 mps 753 mmHg 92%
    04:00 +27°C° 1.2 mm 5 mps 753 mmHg 92%
    05:00 +27°C° 1.2 mm 5 mps 753 mmHg 92%
    06:00 +27°C° 1.2 mm 5 mps 753 mmHg 92%
    07:00 +29°C° 0.7 mm 6 mps 754 mmHg 89%
    08:00 +30°C° 0.7 mm 6 mps 754 mmHg 85%
    09:00 +32°C° 0.7 mm 7 mps 755 mmHg 82%
    10:00 +32°C° 0.6 mm 7 mps 754 mmHg 80%
    11:00 +33°C° 0.6 mm 7 mps 754 mmHg 78%
    12:00 +33°C° 0.6 mm 8 mps 753 mmHg 75%
    13:00 +33°C° 0.6 mm 7 mps 752 mmHg 75%
    14:00 +33°C° 0.6 mm 7 mps 752 mmHg 75%
    15:00 +33°C° 0.6 mm 7 mps 751 mmHg 76%
    16:00 +32°C° 0.1 mm 7 mps 751 mmHg 78%
    17:00 +30°C° 0.1 mm 6 mps 751 mmHg 81%
    18:00 +29°C° 0.1 mm 6 mps 752 mmHg 83%
    19:00 +29°C° 0.1 mm 6 mps 752 mmHg 84%
    20:00 +29°C° 0.1 mm 6 mps 753 mmHg 85%
    21:00 +29°C° 0.1 mm 6 mps 753 mmHg 86%
    22:00 +28°C° 0.1 mm 6 mps 753 mmHg 86%
    23:00 +28°C° 0.1 mm 6 mps 753 mmHg 86%

    22 October, Sunday

    Time Temperature Precipitation Wind Pressure Humidity
    00:00 +28°C° 0.1 mm 6 mps 753 mmHg 87%
    01:00 +28°C° 0.7 mm 6 mps 752 mmHg 88%
    02:00 +28°C° 0.7 mm 6 mps 752 mmHg 89%
    03:00 +27°C° 0.7 mm 6 mps 752 mmHg 90%
    04:00 +27°C° 1 mm 5 mps 752 mmHg 92%
    05:00 +27°C° 1 mm 5 mps 752 mmHg 94%
    06:00 +26°C° 1 mm 4 mps 752 mmHg 95%
    07:00 +27°C° 0.2 mm 4 mps 753 mmHg 92%
    08:00 +27°C° 0.2 mm 4 mps 753 mmHg 89%
    09:00 +28°C° 0.2 mm 4 mps 754 mmHg 86%
    10:00 +28°C° 0.1 mm 4 mps 754 mmHg 85%
    11:00 +29°C° 0.1 mm 4 mps 753 mmHg 83%
    12:00 +29°C° 0.1 mm 3 mps 753 mmHg 81%
    13:00 +29°C° 0.1 mm 3 mps 752 mmHg 82%
    14:00 +29°C° 0.1 mm 3 mps 752 mmHg 83%
    15:00 +29°C° 0.1 mm 3 mps 751 mmHg 84%
    16:00 +28°C° 0 mm 3 mps 752 mmHg 86%
    17:00 +28°C° 0 mm 3 mps 752 mmHg 88%
    18:00 +27°C° 0 mm 2 mps 752 mmHg 91%
    19:00 +27°C° 0 mm 2 mps 753 mmHg 92%
    20:00 +26°C° 0 mm 2 mps 753 mmHg 93%
    21:00 +26°C° 0 mm 2 mps 754 mmHg 94%
    22:00 +26°C° 0 mm 2 mps 754 mmHg 94%
    23:00 +26°C° 0 mm 2 mps 754 mmHg 95%

    23 October, Monday

    Time Temperature Precipitation Wind Pressure Humidity
    00:00 +25°C° 0 mm 2 mps 754 mmHg 96%
    01:00 +25°C° 0 mm 2 mps 754 mmHg 96%
    02:00 +25°C° 0 mm 2 mps 753 mmHg 95%
    03:00 +25°C° 0 mm 2 mps 753 mmHg 95%
    04:00 +25°C° 0 mm 2 mps 754 mmHg 95%
    05:00 +25°C° 0 mm 2 mps 754 mmHg 95%
    06:00 +25°C° 0 mm 2 mps 754 mmHg 95%
    07:00 +26°C° 0 mm 2 mps 755 mmHg 92%
    08:00 +27°C° 0 mm 2 mps 755 mmHg 89%
    09:00 +28°C° 0 mm 2 mps 756 mmHg 86%
    10:00 +28°C° 0 mm 2 mps 755 mmHg 84%
    11:00 +29°C° 0 mm 2 mps 755 mmHg 82%
    12:00 +30°C° 0 mm 2 mps 755 mmHg 79%
    13:00 +30°C° 0.1 mm 2 mps 754 mmHg 77%
    14:00 +31°C° 0.1 mm 2 mps 754 mmHg 75%
    15:00 +31°C° 0.1 mm 2 mps 753 mmHg 72%
    16:00 +30°C° 0 mm 2 mps 753 mmHg 76%
    17:00 +29°C° 0 mm 1 mps 754 mmHg 80%
    18:00 +28°C° 0 mm 1 mps 754 mmHg 84%
    19:00 +28°C° 0 mm 1 mps 755 mmHg 86%
    20:00 +27°C° 0 mm 1 mps 755 mmHg 88%
    21:00 +27°C° 0 mm 1 mps 756 mmHg 90%
    22:00 +27°C° 0 mm 1 mps 756 mmHg 90%
    23:00 +26°C° 0 mm 1 mps 756 mmHg 91%
    Show more